#timestamp,LO_Frequency,Hit,StdDev 
1508720415.3,286046995.8,N
1508720435.2,286046991.7,N
1508720455.0,286046993.6,N
1508720455.9,286046993.6,N
1508720475.7,286046991.8,N
1508720495.6,286046994.4,N
1508720515.4,286046994.3,N
1508720535.2,286046993.5,N
1508720555.1,286046993.9,N
1508720556.0,286046993.9,N
1508720575.8,286046996.1,N
1508720595.6,286046997.7,N
1508720615.5,286047000.0,N
1508720635.3,286047001.5,N
1508720655.2,286047003.1,N
1508720675.9,286047003.1,N
1508720695.7,286047002.7,N
1508720715.6,286047000.4,N
1508720735.4,286047002.2,N
1508720755.2,286047004.3,N
1508720775.1,286047001.8,N
1508720776.0,286047001.8,N
1508720795.8,286047002.1,N
1508720815.6,286046999.7,N
1508720835.5,286047000.4,N
1508720855.3,286047003.5,N
1508720875.1,286047002.2,N
1508720895.9,286047002.4,N
1508720915.7,286047001.5,N
1508720935.5,286047004.2,N
1508720955.4,286047001.4,N
1508720975.2,286046999.8,N
1508720995.0,286047002.4,N
1508720995.9,286047002.4,N
1508721015.8,286047000.8,N
1508721035.6,286047002.7,N
1508721055.4,286047001.2,N
1508721075.3,286047000.7,N
1508721095.1,286046999.3,N
1508721115.8,286046996.7,N
1508721135.7,286046996.0,N
1508721155.5,286046997.1,N
1508721175.3,286046999.4,N
1508721195.2,286046998.3,N
1508721215.9,286046999.8,N
1508721235.7,286047001.5,N
1508721255.6,286046998.7,N
1508721275.4,286046998.4,N
1508721295.2,286046996.7,N
1508721315.1,286046998.7,N
1508721316.0,286046998.7,N
1508721335.8,286047004.9,N
1508721355.7,286047009.5,Y
1508721375.5,286047011.7,P
1508721395.3,286047010.9,N
1508721415.2,286047014.0,N
1508721435.9,286047013.5,N
1508721455.7,286047008.0,N
1508721475.6,286047011.1,N
1508721495.4,286047010.4,N
1508721515.2,286047006.6,N
1508721535.1,286047007.5,N
1508721536.0,286047007.5,N
1508721555.8,286047003.5,N
1508721575.6,286047006.5,N
1508721595.5,286047010.8,N
1508721615.3,286047007.2,N
1508721635.1,286047004.6,N
1508721655.9,286047005.2,N
1508721675.7,286047003.2,N
1508721695.5,286047010.8,N
1508721715.4,286047010.3,N
1508721735.2,286047011.1,Y
1508721755.0,286046998.1,P
1508721755.9,286046998.1,N
1508721775.8,286047002.5,N
1508721795.6,286047001.3,N
1508721815.5,286047005.6,N
1508721835.3,286047005.7,N
1508721855.1,286047006.9,N
1508721875.9,286047002.7,N
1508721895.7,286047001.4,N
1508721915.5,286047002.4,N
1508721935.3,286046998.0,N
1508721955.2,286046995.0,N
1508721975.0,286046999.2,N
1508721975.9,286046999.2,N
1508721995.8,286046997.0,N
1508722015.6,286046995.2,N
1508722035.4,286046996.2,N
1508722055.3,286046992.3,N
1508722075.1,286046990.8,N
1508722076.0,286046990.8,N
1508722095.8,286046990.3,N
1508722115.7,286046991.8,N
1508722135.5,286046993.3,N
1508722155.3,286046994.9,N
1508722175.2,286046997.2,N
1508722195.9,286046998.0,N
1508722215.7,286046998.9,N
1508722235.6,286046994.5,N
1508722255.4,286046990.7,N
1508722275.2,286046991.0,N
1508722295.1,286046987.5,N
1508722296.0,286046987.5,N
1508722315.8,286046984.2,N
1508722335.6,286046983.9,N
1508722355.5,286046986.5,N
1508722375.3,286046986.1,N
1508722395.1,286046985.8,N
1508722415.9,286046986.5,N
1508722435.7,286046986.7,N
1508722455.6,286046984.3,Y
1508722475.4,286046994.1,P
1508722495.2,286046994.4,P
1508722515.1,286046990.2,P
1508722516.0,286046990.2,Y
1508722535.8,286046994.9,P
1508722555.6,286046995.5,P
1508722575.5,286046994.9,P
1508722595.3,286047000.7,N
1508722615.1,286047000.0,N
1508722635.9,286046998.4,N
1508722655.7,286046999.4,N
1508722675.5,286046998.9,N
1508722695.4,286046997.4,N
1508722715.2,286046995.4,N
1508722735.0,286046999.6,N
1508722735.9,286046999.6,N
1508722755.8,286046998.9,N
1508722775.6,286046999.2,N
1508722795.4,286047000.8,N
1508722815.3,286047001.2,N
1508722835.1,286047000.7,N
1508722855.8,286047000.0,N
1508722875.7,286047001.0,N
1508722895.5,286047000.6,N
1508722915.3,286046998.3,N
1508722935.2,286046996.9,N
1508722955.0,286046995.4,N
1508722955.9,286046995.4,N
1508722975.7,286046994.1,N
1508722995.6,286046993.3,N
1508723015.4,286046994.3,N
1508723035.2,286046992.9,N
1508723055.1,286046990.6,Y
1508723056.0,286046990.6,P
1508723075.8,286046995.3,N
1508723095.7,286046998.0,N
1508723115.5,286046995.5,N
1508723135.3,286046994.1,N
1508723155.2,286046989.1,Y
1508723175.0,286047000.2,P
1508723175.9,286047000.2,N
1508723195.7,286047006.1,N
1508723215.6,286047012.8,Y
1508723235.4,286047013.4,P
1508723255.3,286047017.2,N
1508723275.1,286047019.1,N
1508723276.0,286047019.1,N
1508723295.8,286047019.9,N
1508723315.7,286047022.0,Y
1508723335.5,286047006.1,P
1508723355.3,286047005.5,N
1508723375.2,286047006.0,N
1508723395.0,286047007.0,N
1508723395.9,286047007.0,N
1508723415.8,286047006.3,N
1508723435.6,286047006.1,N
1508723455.4,286047012.3,Y
1508723475.3,286047000.8,P
1508723495.1,286046999.4,N
1508723496.0,286046999.4,N
1508723515.8,286046998.2,N
1508723535.7,286047000.5,N
1508723555.5,286046999.1,N
1508723575.3,286047000.4,N
1508723595.2,286047002.4,N
1508723615.9,286047003.7,N
1508723635.7,286047006.6,N
1508723655.6,286047007.3,N
1508723675.4,286047004.8,N
1508723695.2,286047012.3,Y
1508723715.1,286047009.4,P
1508723716.0,286047009.4,N
1508723735.8,286047010.8,P
1508723755.7,286047010.4,Y
1508723775.5,286047000.9,P
1508723795.3,286047000.9,N
1508723815.2,286047002.4,N
1508723835.9,286047003.1,N
1508723855.7,286046998.5,N
1508723875.6,286046999.4,N
1508723895.4,286046995.9,N
1508723915.2,286046995.9,N
1508723935.1,286046992.8,N
1508723936.0,286046992.8,N
1508723955.8,286046991.9,N
1508723975.6,286046995.4,N
1508723995.5,286046995.7,N
